Meteo orario Abidzhan

Oggi, 6 Marzo, Sabato

Tempo Temperatura Precipitazioni Vento Pressione Umidità
00:00 +28°C° 0 mm 3 m/s 754 mm Hg 86%
01:00 +28°C° 0.8 mm 3 m/s 754 mm Hg 86%
02:00 +28°C° 0.8 mm 2 m/s 754 mm Hg 86%
03:00 +28°C° 0.8 mm 2 m/s 753 mm Hg 86%
04:00 +28°C° 0.2 mm 3 m/s 754 mm Hg 86%
05:00 +28°C° 0.2 mm 3 m/s 754 mm Hg 87%
06:00 +28°C° 0 mm 4 m/s 754 mm Hg 88%
07:00 +28°C° 0 mm 4 m/s 754 mm Hg 84%
08:00 +29°C° 0 mm 4 m/s 755 mm Hg 80%
09:00 +30°C° 0 mm 4 m/s 755 mm Hg 76%
10:00 +33°C° 0 mm 4 m/s 755 mm Hg 70%
11:00 +34°C° 0 mm 4 m/s 755 mm Hg 64%
12:00 +35°C° 0 mm 4 m/s 755 mm Hg 59%
13:00 +35°C° 0 mm 4 m/s 754 mm Hg 59%
14:00 +34°C° 0 mm 5 m/s 753 mm Hg 59%
15:00 +34°C° 0 mm 5 m/s 753 mm Hg 59%
16:00 +33°C° 0 mm 4 m/s 753 mm Hg 63%
17:00 +32°C° 0 mm 4 m/s 753 mm Hg 68%
18:00 +30°C° 0 mm 4 m/s 754 mm Hg 73%
19:00 +30°C° 0 mm 4 m/s 754 mm Hg 76%
20:00 +29°C° 0 mm 3 m/s 755 mm Hg 79%
21:00 +29°C° 0 mm 3 m/s 755 mm Hg 82%
22:00 +28°C° 0 mm 3 m/s 755 mm Hg 82%
23:00 +28°C° 0 mm 3 m/s 755 mm Hg 83%

Domani, 7 Marzo, Domenica

Tempo Temperatura Precipitazioni Vento Pressione Umidità
00:00 +28°C° 0 mm 3 m/s 755 mm Hg 83%
01:00 +28°C° 0 mm 3 m/s 755 mm Hg 85%
02:00 +28°C° 0 mm 3 m/s 755 mm Hg 87%
03:00 +27°C° 0 mm 3 m/s 754 mm Hg 89%
04:00 +27°C° 0 mm 3 m/s 754 mm Hg 90%
05:00 +27°C° 0 mm 3 m/s 755 mm Hg 90%
06:00 +27°C° 0 mm 3 m/s 755 mm Hg 91%
07:00 +28°C° 0 mm 3 m/s 755 mm Hg 84%
08:00 +29°C° 0 mm 3 m/s 756 mm Hg 78%
09:00 +30°C° 0 mm 3 m/s 756 mm Hg 71%
10:00 +31°C° 0 mm 3 m/s 756 mm Hg 65%
11:00 +34°C° 0 mm 4 m/s 755 mm Hg 59%
12:00 +35°C° 0 mm 4 m/s 755 mm Hg 52%
13:00 +35°C° 0 mm 4 m/s 754 mm Hg 52%
14:00 +35°C° 0 mm 4 m/s 753 mm Hg 52%
15:00 +35°C° 0 mm 5 m/s 753 mm Hg 52%
16:00 +34°C° 0 mm 5 m/s 753 mm Hg 57%
17:00 +33°C° 0 mm 4 m/s 753 mm Hg 63%
18:00 +32°C° 0 mm 4 m/s 753 mm Hg 68%
19:00 +30°C° 0 mm 4 m/s 753 mm Hg 71%
20:00 +29°C° 0 mm 4 m/s 754 mm Hg 74%
21:00 +29°C° 0 mm 4 m/s 754 mm Hg 78%
22:00 +29°C° 0 mm 4 m/s 754 mm Hg 79%
23:00 +29°C° 0 mm 4 m/s 754 mm Hg 80%

Dopodomani, 8 Marzo, Lunedi

Tempo Temperatura Precipitazioni Vento Pressione Umidità
00:00 +28°C° 0 mm 4 m/s 755 mm Hg 82%
01:00 +28°C° 0 mm 4 m/s 754 mm Hg 83%
02:00 +28°C° 0 mm 4 m/s 753 mm Hg 85%
03:00 +28°C° 0 mm 5 m/s 753 mm Hg 86%
04:00 +28°C° 0 mm 4 m/s 753 mm Hg 87%
05:00 +28°C° 0 mm 4 m/s 753 mm Hg 87%
06:00 +27°C° 0 mm 4 m/s 753 mm Hg 87%
07:00 +29°C° 0 mm 5 m/s 754 mm Hg 81%
08:00 +30°C° 0 mm 5 m/s 754 mm Hg 75%
09:00 +32°C° 0 mm 5 m/s 755 mm Hg 69%
10:00 +33°C° 0 mm 5 m/s 754 mm Hg 65%
11:00 +34°C° 0 mm 5 m/s 754 mm Hg 61%
12:00 +35°C° 0 mm 5 m/s 754 mm Hg 57%
13:00 +35°C° 0 mm 5 m/s 753 mm Hg 56%
14:00 +35°C° 0 mm 5 m/s 752 mm Hg 56%
15:00 +35°C° 0 mm 5 m/s 752 mm Hg 55%
16:00 +34°C° 0 mm 5 m/s 752 mm Hg 60%
17:00 +32°C° 0 mm 4 m/s 752 mm Hg 64%
18:00 +30°C° 0 mm 4 m/s 752 mm Hg 69%
19:00 +30°C° 0 mm 4 m/s 752 mm Hg 73%
20:00 +29°C° 0 mm 4 m/s 753 mm Hg 76%
21:00 +29°C° 0 mm 4 m/s 754 mm Hg 80%
22:00 +29°C° 0.1 mm 4 m/s 754 mm Hg 81%
23:00 +28°C° 0.1 mm 4 m/s 754 mm Hg 82%

9 Marzo, Martedi

Tempo Temperatura Precipitazioni Vento Pressione Umidità
00:00 +28°C° 0.1 mm 4 m/s 754 mm Hg 83%
01:00 +28°C° 0 mm 4 m/s 753 mm Hg 84%
02:00 +28°C° 0 mm 4 m/s 753 mm Hg 84%
03:00 +28°C° 0 mm 4 m/s 752 mm Hg 85%
04:00 +28°C° 0 mm 4 m/s 752 mm Hg 86%
05:00 +27°C° 0 mm 4 m/s 752 mm Hg 86%
06:00 +27°C° 0 mm 4 m/s 752 mm Hg 87%
07:00 +28°C° 0 mm 4 m/s 753 mm Hg 81%
08:00 +30°C° 0 mm 4 m/s 753 mm Hg 75%
09:00 +32°C° 0 mm 4 m/s 754 mm Hg 70%
10:00 +32°C° 0 mm 5 m/s 754 mm Hg 66%
11:00 +33°C° 0 mm 5 m/s 753 mm Hg 63%
12:00 +34°C° 0 mm 5 m/s 753 mm Hg 60%
13:00 +34°C° 0 mm 5 m/s 752 mm Hg 59%
14:00 +34°C° 0 mm 5 m/s 752 mm Hg 59%
15:00 +34°C° 0 mm 5 m/s 751 mm Hg 59%
16:00 +33°C° 0 mm 5 m/s 751 mm Hg 62%
17:00 +32°C° 0 mm 5 m/s 751 mm Hg 66%
18:00 +30°C° 0 mm 5 m/s 752 mm Hg 70%
19:00 +30°C° 0 mm 5 m/s 752 mm Hg 73%
20:00 +29°C° 0 mm 5 m/s 752 mm Hg 76%
21:00 +29°C° 0 mm 5 m/s 753 mm Hg 78%
22:00 +28°C° 0.1 mm 4 m/s 753 mm Hg 80%
23:00 +28°C° 0.1 mm 4 m/s 753 mm Hg 82%

10 Marzo, Mercoledi

Tempo Temperatura Precipitazioni Vento Pressione Umidità
00:00 +28°C° 0.1 mm 4 m/s 754 mm Hg 84%
01:00 +28°C° 0.2 mm 4 m/s 753 mm Hg 85%
02:00 +27°C° 0.2 mm 4 m/s 753 mm Hg 87%
03:00 +27°C° 0.2 mm 3 m/s 753 mm Hg 88%
04:00 +27°C° 0 mm 3 m/s 753 mm Hg 88%
05:00 +27°C° 0 mm 3 m/s 753 mm Hg 88%
06:00 +27°C° 0 mm 3 m/s 753 mm Hg 89%
07:00 +28°C° 0 mm 3 m/s 753 mm Hg 82%
08:00 +29°C° 0 mm 4 m/s 754 mm Hg 75%
09:00 +30°C° 0 mm 4 m/s 754 mm Hg 69%
10:00 +33°C° 0 mm 4 m/s 754 mm Hg 64%
11:00 +34°C° 0 mm 4 m/s 754 mm Hg 58%
12:00 +35°C° 0 mm 5 m/s 753 mm Hg 53%
13:00 +35°C° 0 mm 5 m/s 753 mm Hg 55%
14:00 +34°C° 0 mm 5 m/s 752 mm Hg 56%
15:00 +34°C° 0 mm 5 m/s 751 mm Hg 58%
16:00 +33°C° 0 mm 5 m/s 751 mm Hg 61%
17:00 +32°C° 0 mm 5 m/s 751 mm Hg 64%
18:00 +30°C° 0 mm 5 m/s 751 mm Hg 67%
19:00 +30°C° 0 mm 5 m/s 752 mm Hg 72%
20:00 +29°C° 0 mm 4 m/s 753 mm Hg 76%
21:00 +29°C° 0 mm 4 m/s 753 mm Hg 80%
22:00 +28°C° 0 mm 4 m/s 753 mm Hg 82%
23:00 +28°C° 0 mm 4 m/s 754 mm Hg 84%

11 Marzo, Giovedi

Tempo Temperatura Precipitazioni Vento Pressione Umidità
00:00 +28°C° 0 mm 4 m/s 754 mm Hg 86%
01:00 +28°C° 0 mm 4 m/s 753 mm Hg 87%
02:00 +28°C° 0 mm 4 m/s 753 mm Hg 87%
03:00 +27°C° 0 mm 4 m/s 753 mm Hg 88%
04:00 +27°C° 0.1 mm 3 m/s 753 mm Hg 88%
05:00 +27°C° 0.1 mm 3 m/s 753 mm Hg 88%
06:00 +27°C° 0.1 mm 3 m/s 753 mm Hg 89%
07:00 +28°C° 0 mm 3 m/s 753 mm Hg 82%
08:00 +30°C° 0 mm 4 m/s 754 mm Hg 75%
09:00 +32°C° 0 mm 4 m/s 754 mm Hg 69%
10:00 +33°C° 0 mm 4 m/s 754 mm Hg 64%
11:00 +34°C° 0 mm 4 m/s 753 mm Hg 59%
12:00 +35°C° 0 mm 4 m/s 753 mm Hg 54%
13:00 +35°C° 0 mm 4 m/s 752 mm Hg 55%
14:00 +35°C° 0 mm 5 m/s 752 mm Hg 56%
15:00 +35°C° 0 mm 5 m/s 751 mm Hg 56%
16:00 +34°C° 0 mm 5 m/s 751 mm Hg 61%
17:00 +33°C° 0 mm 5 m/s 751 mm Hg 66%
18:00 +30°C° 0 mm 5 m/s 751 mm Hg 70%
19:00 +30°C° 0 mm 5 m/s 752 mm Hg 73%
20:00 +29°C° 0 mm 4 m/s 752 mm Hg 77%
21:00 +29°C° 0 mm 4 m/s 753 mm Hg 80%
22:00 +29°C° 0 mm 4 m/s 753 mm Hg 81%
23:00 +28°C° 0 mm 4 m/s 753 mm Hg 82%
Mostrare altro

Abbiamo bisogno del tuo consenso

Meteoprog e i nostri fornitori di servizi possono memorizzare e accedere a dati personali come cookie, identificatori di dispositivi o altre tecnologie simili sul tuo dispositivo e possono elaborare tali dati per personalizzare i contenuti e gli annunci, nonché fornire funzionalità dei social media e analizzarne il traffico.

  • Archiviare e/o accedere alle informazioni sul tuo dispositivo

    Cookie, identificatori di dispositivi o altre informazioni possono essere memorizzati o resi accessibili sul tuo dispositivo per le finalità sopra indicate.

  • Annunci e contenuti personalizzati, misurazione di annunci e contenuti, approfondimenti sul pubblico e sviluppo di prodotti

    Gli annunci e i contenuti possono essere personalizzati in base a un profilo. È possibile aggiungere più dati per personalizzare meglio annunci e contenuti. È possibile misurare il rendimento degli annunci e dei contenuti. È possibile ricavare informazioni sul pubblico che ha visto gli annunci e i contenuti. Tali dati possono essere utilizzati per sviluppare o migliorare l'esperienza, i sistemi e il software dell'utente.

Cliccando su “Accetto”, acconsenti all'uso di cookie, identificatori di dispositivo, web beacon o altre tecnologie simili. Puoi modificare le impostazioni nel browser del tuo dispositivo.

Per determinati scopi, è possibile fare affidamento su interessi legali, piuttosto che sul consenso. Puoi approfondire questo argomento consultando la nostra Informativa sulla privacy e sui cookie.